TITAN 3C TRANSTAGE DEB, 26782

Orbit data source: Space-Track

TITAN 3C TRANSTAGE DEB, 26782 is space debris originally from a launch on Tue, 21 Dec 1965 UTC launched from the Air Force Eastern Test Range (AFETR). Debris objects in space refer to the collection of defunct objects orbiting the Earth. Examples of debris include non-operational satellites, rocket bodies, and fragments generated from explosions, collisions, or faulty payload assembly.

Loading next visibility...
Identifier
26782, 1965-108BA
Orbit
Active
Country
Flag of USUS
Related business
Manufacturer
Unknown
Mission
Spacecraft
Bus & Motor
Unknown
Mass
Unknown
Launch date (UTC)
1965-12-21 (61 years ago)
Launch vehicle
Unknown
Launch site
Air Force Eastern Test Range (AFETR)
Object type
Payload
Rocket body
Debris
Shape & HBR
Unknown shape, 0.3 m
Radar Cross Section
Medium (>0.1 m² and <1 m²)

Expand to show TLE details & history
Last TLE update: 21 hours ago

TLE from 21 hours ago
0 TITAN 3C TRANSTAGE DEB
1 26782U 65108BA  26206.27368445  .00065971 -85959-6  26707-2 0  9995
2 26782  26.4149 197.1139 2759280  21.5704 348.1392  9.84897662416893
Epoch: 2026-07-25T06:34Z
TLE epoch observation values (Epoch: 2026-07-25T06:34:06.336Z)
Latitude
-0°
Longitude
155.59916°
Altitude
379.171 km
Speed
8.64 km/s
True Right ascension
13h 08m 27s
True Declination
0° 00' 00"
Sunlit
Object was in daylight at epoch
Visualization orbit readout
Latitude
Unknown
Longitude
Unknown
Altitude
Unknown
Speed
Unknown
Apparent Right ascension
Unknown
Apparent Declination
Unknown
Sunlit
N/A
Visualization observer readout
Local Sidereal Time
16:59:38
Azimuth
Unknown
Elevation
Unknown
Doppler factor
Unknown
Orbital elements
Apogee altitude
5,356.782 km
Perigee altitude
281.272 km
Semi-major axis
9,197.164 km
Eccentricity
0.27593
Inclination
26.4149°
RAAN
197.1139°
Arg. of periapsis
21.5704°
True anomaly
338.47568°
Mean anomaly
348.1392°
Eccentric anomaly
343.70272°
Mean motion
2.46072 °/min
Orbital period
146.3 mins
BSTAR
0.0026707

Documentation

Showing up to 5 results
|